Time,TemperatureF,DewpointF,PressureIn,WindDirection,WindDirectionDegrees,WindSpeedMPH,WindSpeedGustMPH,Humidity,HourlyPrecipIn,Conditions,Clouds,dailyrainin,SoftwareType,DateUTC
2013-04-12 00:03:00,37.3,26.2,29.83,SSE,158,0.0,0.0,65,0.00,,,0.00,WSDL version 427,2013-04-12 05:03:00,
2013-04-12 00:08:00,37.0,26.4,29.85,SSE,158,0.0,0.0,65,0.00,,,0.00,WSDL version 427,2013-04-12 05:08:00,
2013-04-12 00:13:00,37.0,26.6,29.85,SSE,158,0.0,0.0,66,0.00,,,0.00,WSDL version 427,2013-04-12 05:13:00,
2013-04-12 00:18:00,36.9,26.6,29.85,SSE,158,0.0,0.0,66,0.00,,,0.00,WSDL version 427,2013-04-12 05:18:00,
2013-04-12 00:23:00,36.9,26.6,29.85,SSE,158,0.0,0.0,67,0.00,,,0.00,WSDL version 427,2013-04-12 05:23:00,
2013-04-12 00:28:00,36.7,26.8,29.85,SSE,158,0.0,0.0,67,0.00,,,0.00,WSDL version 427,2013-04-12 05:28:00,
2013-04-12 00:33:00,36.6,26.7,29.85,SSE,158,0.0,0.0,67,0.00,,,0.00,WSDL version 427,2013-04-12 05:33:00,
2013-04-12 00:38:00,36.5,27.0,29.85,SSE,158,0.0,0.0,68,0.00,,,0.00,WSDL version 427,2013-04-12 05:38:00,
2013-04-12 00:43:00,36.5,27.0,29.85,SSE,158,0.0,0.0,68,0.00,,,0.00,WSDL version 427,2013-04-12 05:43:00,
2013-04-12 00:48:00,36.5,27.1,29.85,SSE,158,0.0,0.0,69,0.00,,,0.00,WSDL version 427,2013-04-12 05:48:00,
2013-04-12 00:53:00,36.3,27.1,29.88,SSE,158,0.0,0.0,69,0.00,,,0.00,WSDL version 427,2013-04-12 05:53:00,
2013-04-12 00:58:00,36.3,27.1,29.88,SSE,158,0.0,0.0,69,0.00,,,0.00,WSDL version 427,2013-04-12 05:58:00,
2013-04-12 01:03:00,36.3,27.1,29.88,SSE,158,0.0,0.0,69,0.00,,,0.00,WSDL version 427,2013-04-12 06:03:00,
2013-04-12 01:08:00,36.5,27.3,29.88,SSE,158,0.0,0.0,69,0.00,,,0.00,WSDL version 427,2013-04-12 06:08:00,
2013-04-12 01:13:00,36.3,27.1,29.88,SSE,158,0.0,0.0,69,0.00,,,0.00,WSDL version 427,2013-04-12 06:13:00,
2013-04-12 01:18:00,36.3,27.1,29.88,SSE,158,0.0,0.0,69,0.00,,,0.00,WSDL version 427,2013-04-12 06:18:00,
2013-04-12 01:23:00,36.3,27.3,29.85,SSE,158,0.0,0.0,69,0.00,,,0.00,WSDL version 427,2013-04-12 06:23:00,
2013-04-12 01:28:00,36.3,27.4,29.85,SSE,158,0.0,0.0,70,0.00,,,0.00,WSDL version 427,2013-04-12 06:28:00,
2013-04-12 01:33:00,36.3,27.4,29.85,SSE,158,0.0,0.0,70,0.00,,,0.00,WSDL version 427,2013-04-12 06:33:00,
2013-04-12 01:38:00,36.1,27.3,29.85,SSE,158,0.0,0.0,70,0.00,,,0.00,WSDL version 427,2013-04-12 06:38:00,
2013-04-12 01:43:00,36.1,27.6,29.85,SSE,158,0.0,0.0,71,0.00,,,0.00,WSDL version 427,2013-04-12 06:43:00,
2013-04-12 01:48:00,36.0,27.5,29.85,SSE,158,0.0,0.0,71,0.00,,,0.00,WSDL version 427,2013-04-12 06:48:00,
2013-04-12 01:53:00,35.8,27.4,29.85,SSE,158,0.0,0.0,71,0.00,,,0.00,WSDL version 427,2013-04-12 06:53:00,
2013-04-12 01:58:00,35.8,27.3,29.85,SSE,158,0.0,0.0,71,0.00,,,0.00,WSDL version 427,2013-04-12 06:58:00,
2013-04-12 02:03:00,35.7,27.2,29.85,SSE,158,0.0,0.0,71,0.00,,,0.00,WSDL version 427,2013-04-12 07:03:00,
2013-04-12 02:08:00,35.4,27.3,29.85,SSE,158,0.0,0.0,72,0.00,,,0.00,WSDL version 427,2013-04-12 07:08:00,
2013-04-12 02:13:00,35.2,27.1,29.85,SSE,158,0.0,0.0,72,0.00,,,0.00,WSDL version 427,2013-04-12 07:13:00,
2013-04-12 02:18:00,35.1,27.1,29.85,SSE,158,0.0,0.0,73,0.00,,,0.00,WSDL version 427,2013-04-12 07:18:00,
2013-04-12 02:23:00,35.1,27.3,29.83,SSE,158,0.0,0.0,73,0.00,,,0.00,WSDL version 427,2013-04-12 07:23:00,
2013-04-12 02:28:00,35.1,27.3,29.83,SSE,158,0.0,0.0,73,0.00,,,0.00,WSDL version 427,2013-04-12 07:28:00,
2013-04-12 02:33:00,35.1,27.5,29.83,SSE,158,0.0,0.0,74,0.00,,,0.00,WSDL version 427,2013-04-12 07:33:00,
2013-04-12 02:38:00,35.1,27.4,29.83,SSE,158,0.0,0.0,73,0.00,,,0.00,WSDL version 427,2013-04-12 07:38:00,
2013-04-12 02:43:00,34.9,27.3,29.83,SSE,158,0.0,0.0,74,0.00,,,0.00,WSDL version 427,2013-04-12 07:43:00,
2013-04-12 02:48:00,34.8,27.2,29.83,SSE,158,0.0,0.0,74,0.00,,,0.00,WSDL version 427,2013-04-12 07:48:00,
2013-04-12 02:53:00,34.7,27.3,29.83,SSE,158,0.0,0.0,74,0.00,,,0.00,WSDL version 427,2013-04-12 07:53:00,
2013-04-12 02:58:00,34.6,27.2,29.83,WSW,248,0.0,1.3,74,0.00,,,0.00,WSDL version 427,2013-04-12 07:58:00,
2013-04-12 03:03:00,34.5,27.1,29.83,WSW,239,0.9,3.1,74,0.00,,,0.00,WSDL version 427,2013-04-12 08:03:00,
2013-04-12 03:08:00,34.6,27.2,29.85,WSW,237,1.1,3.1,74,0.00,,,0.00,WSDL version 427,2013-04-12 08:08:00,
2013-04-12 03:13:00,34.8,27.4,29.85,WSW,245,0.0,2.2,74,0.00,,,0.00,WSDL version 427,2013-04-12 08:13:00,
2013-04-12 03:18:00,35.1,27.6,29.85,SSW,203,0.0,1.6,74,0.00,,,0.00,WSDL version 427,2013-04-12 08:18:00,
2013-04-12 03:23:00,35.1,27.6,29.83,WSW,248,0.0,2.5,74,0.00,,,0.00,WSDL version 427,2013-04-12 08:23:00,
2013-04-12 03:28:00,35.1,27.6,29.83,WSW,245,0.1,2.5,74,0.00,,,0.00,WSDL version 427,2013-04-12 08:28:00,
2013-04-12 03:33:00,35.0,27.5,29.83,WSW,248,0.4,2.5,74,0.00,,,0.00,WSDL version 427,2013-04-12 08:33:00,
2013-04-12 03:38:00,35.1,27.6,29.85,SSW,203,0.0,2.0,74,0.00,,,0.00,WSDL version 427,2013-04-12 08:38:00,
2013-04-12 03:43:00,35.1,27.6,29.85,NW,309,0.1,1.6,74,0.00,,,0.00,WSDL version 427,2013-04-12 08:43:00,
2013-04-12 03:48:00,35.2,27.7,29.85,SW,230,0.6,2.2,74,0.00,,,0.00,WSDL version 427,2013-04-12 08:48:00,
2013-04-12 03:53:00,35.5,28.0,29.85,SW,231,2.1,3.4,74,0.00,,,0.00,WSDL version 427,2013-04-12 08:53:00,
2013-04-12 03:58:00,35.7,28.0,29.85,WSW,252,1.3,3.6,73,0.00,,,0.00,WSDL version 427,2013-04-12 08:58:00,
2013-04-12 04:03:00,36.0,28.2,29.85,SW,231,0.4,3.6,73,0.00,,,0.00,WSDL version 427,2013-04-12 09:03:00,
2013-04-12 04:08:00,36.2,28.4,29.88,SW,228,1.7,2.9,73,0.00,,,0.00,WSDL version 427,2013-04-12 09:08:00,
2013-04-12 04:13:00,36.4,28.6,29.88,SW,229,1.6,2.9,73,0.00,,,0.00,WSDL version 427,2013-04-12 09:13:00,
2013-04-12 04:18:00,36.6,28.8,29.88,WSW,245,0.7,3.4,73,0.00,,,0.00,WSDL version 427,2013-04-12 09:18:00,
2013-04-12 04:23:00,36.8,28.9,29.88,WSW,248,0.0,4.0,73,0.00,,,0.00,WSDL version 427,2013-04-12 09:23:00,
2013-04-12 04:28:00,37.0,29.1,29.88,WNW,293,1.8,4.0,73,0.00,,,0.00,WSDL version 427,2013-04-12 09:28:00,
2013-04-12 04:33:00,37.0,28.9,29.88,WNW,290,1.8,5.8,72,0.00,,,0.00,WSDL version 427,2013-04-12 09:33:00,
2013-04-12 04:38:00,37.1,29.0,29.88,WSW,255,1.9,5.8,72,0.00,,,0.00,WSDL version 427,2013-04-12 09:38:00,
2013-04-12 04:43:00,37.2,29.0,29.88,WSW,248,1.5,4.0,72,0.00,,,0.00,WSDL version 427,2013-04-12 09:43:00,
2013-04-12 04:48:00,37.3,29.1,29.88,WSW,252,1.8,3.1,72,0.00,,,0.00,WSDL version 427,2013-04-12 09:48:00,
2013-04-12 04:53:00,37.4,29.2,29.85,WNW,286,1.9,4.9,72,0.00,,,0.00,WSDL version 427,2013-04-12 09:53:00,
2013-04-12 04:58:00,37.4,28.9,29.85,WNW,286,3.0,5.4,71,0.00,,,0.00,WSDL version 427,2013-04-12 09:58:00,
2013-04-12 05:03:00,37.4,28.9,29.85,West,261,2.1,5.4,71,0.00,,,0.00,WSDL version 427,2013-04-12 10:03:00,
2013-04-12 05:08:00,37.5,29.2,29.88,West,261,3.0,5.4,72,0.00,,,0.00,WSDL version 427,2013-04-12 10:08:00,
2013-04-12 05:13:00,37.6,29.4,29.88,WSW,240,2.5,5.4,72,0.00,,,0.00,WSDL version 427,2013-04-12 10:13:00,
2013-04-12 05:19:00,37.6,29.0,29.88,WSW,243,2.7,7.2,71,0.00,,,0.00,WSDL version 427,2013-04-12 10:19:00,
2013-04-12 05:24:00,37.8,29.2,29.88,West,272,2.7,7.2,71,0.00,,,0.00,WSDL version 427,2013-04-12 10:24:00,
2013-04-12 05:29:00,37.8,29.6,29.88,West,272,2.7,5.6,72,0.00,,,0.00,WSDL version 427,2013-04-12 10:29:00,
2013-04-12 05:34:00,37.8,29.4,29.88,WSW,256,2.4,5.6,71,0.00,,,0.00,WSDL version 427,2013-04-12 10:34:00,
2013-04-12 05:39:00,37.8,29.2,29.88,WNW,303,3.6,5.8,70,0.00,,,0.00,WSDL version 427,2013-04-12 10:39:00,
2013-04-12 05:44:00,37.8,28.9,29.88,WSW,248,2.4,8.1,70,0.00,,,0.00,WSDL version 427,2013-04-12 10:44:00,
2013-04-12 05:49:00,37.8,28.4,29.91,WNW,302,3.4,8.1,68,0.00,,,0.00,WSDL version 427,2013-04-12 10:49:00,
2013-04-12 05:54:00,37.8,27.9,29.91,West,261,3.2,5.6,67,0.00,,,0.00,WSDL version 427,2013-04-12 10:54:00,
2013-04-12 05:59:00,37.6,27.4,29.91,WSW,256,2.7,4.7,66,0.00,,,0.00,WSDL version 427,2013-04-12 10:59:00,
2013-04-12 06:04:00,37.6,27.3,29.91,WNW,284,1.9,4.3,66,0.00,,,0.00,WSDL version 427,2013-04-12 11:04:00,
2013-04-12 06:09:00,37.6,27.3,29.91,West,270,1.8,4.3,66,0.00,,,0.00,WSDL version 427,2013-04-12 11:09:00,
2013-04-12 06:14:00,37.6,27.3,29.91,WNW,284,3.2,5.4,66,0.00,,,0.00,WSDL version 427,2013-04-12 11:14:00,
2013-04-12 06:19:00,37.5,27.1,29.91,West,272,2.4,5.6,66,0.00,,,0.00,WSDL version 427,2013-04-12 11:19:00,
2013-04-12 06:24:00,37.4,27.1,29.91,WSW,258,2.3,5.6,66,0.00,,,0.00,WSDL version 427,2013-04-12 11:24:00,
2013-04-12 06:29:00,37.4,26.9,29.91,West,280,3.2,8.7,66,0.00,,,0.00,WSDL version 427,2013-04-12 11:29:00,
2013-04-12 06:34:00,37.1,26.3,29.91,NW,309,3.9,10.1,65,0.00,,,0.00,WSDL version 427,2013-04-12 11:34:00,
2013-04-12 06:41:00,37.0,25.2,29.91,NNW,330,4.2,10.1,62,0.00,,,0.00,WSDL version 427,2013-04-12 11:41:00,
2013-04-12 06:46:00,36.9,25.1,29.91,NW,315,3.7,6.5,62,0.00,,,0.00,WSDL version 427,2013-04-12 11:46:00,
2013-04-12 06:51:00,36.9,24.7,29.91,NW,323,4.2,6.0,61,0.00,,,0.00,WSDL version 427,2013-04-12 11:51:00,
2013-04-12 06:56:00,36.7,24.5,29.91,NW,315,3.8,6.0,61,0.00,,,0.00,WSDL version 427,2013-04-12 11:56:00,
2013-04-12 07:01:00,36.7,24.5,29.91,NW,323,3.8,6.0,61,0.00,,,0.00,WSDL version 427,2013-04-12 12:01:00,
2013-04-12 07:06:00,36.7,24.5,29.94,NW,308,4.3,6.5,61,0.00,,,0.00,WSDL version 427,2013-04-12 12:06:00,
2013-04-12 07:11:00,36.5,23.9,29.94,WNW,300,3.6,6.5,60,0.00,,,0.00,WSDL version 427,2013-04-12 12:11:00,
2013-04-12 07:16:00,36.5,23.9,29.94,NW,315,4.0,5.8,60,0.00,,,0.00,WSDL version 427,2013-04-12 12:16:00,
2013-04-12 07:21:00,36.5,23.9,29.94,NW,308,4.3,6.0,60,0.00,,,0.00,WSDL version 427,2013-04-12 12:21:00,
2013-04-12 07:26:00,36.5,23.9,29.94,NW,315,3.1,6.0,60,0.00,,,0.00,WSDL version 427,2013-04-12 12:26:00,
2013-04-12 07:31:00,36.5,23.5,29.94,NW,315,3.1,4.3,59,0.00,,,0.00,WSDL version 427,2013-04-12 12:31:00,
2013-04-12 07:36:00,36.5,23.5,29.94,WNW,285,4.4,5.8,59,0.00,,,0.00,WSDL version 427,2013-04-12 12:36:00,
2013-04-12 07:41:00,36.7,23.3,29.94,WNW,293,2.8,5.8,58,0.00,,,0.00,WSDL version 427,2013-04-12 12:41:00,
2013-04-12 07:46:00,36.7,23.7,29.94,NW,308,4.3,7.6,59,0.00,,,0.00,WSDL version 427,2013-04-12 12:46:00,
2013-04-12 07:51:00,36.9,23.1,29.94,NW,315,5.7,8.1,57,0.00,,,0.00,WSDL version 427,2013-04-12 12:51:00,
2013-04-12 07:56:00,36.9,23.1,29.94,WNW,293,4.2,8.1,57,0.00,,,0.00,WSDL version 427,2013-04-12 12:56:00,
2013-04-12 08:01:00,37.0,22.8,29.94,NNW,338,6.0,10.3,56,0.00,,,0.00,WSDL version 427,2013-04-12 13:01:00,
2013-04-12 08:06:00,37.0,22.4,29.94,North,8,6.2,10.5,55,0.00,,,0.00,WSDL version 427,2013-04-12 13:06:00,